Skip Page Navigation
NASA JPL Caltech
NASA Logo - Jet Propulsion Laboratory + View the NASA Portal
+ Center for Near-Earth Object Studies
JPL Home Earth Solar System Stars & Galaxies Technology
JPL Solar System Dynamics
BODIES ORBITS EPHEMERIDES TOOLS PHYSICAL DATA DISCOVERY FAQ SITE MAP
JPL Small-Body Database Browser
Search: [ help ]  
67115 (2000 AF116)
Classification: Main-belt Asteroid          SPK-ID: 2067115
Ephemeris | Orbit Diagram | Orbital Elements | Mission Design | Physical Parameters | Discovery Circumstances | Close-Approach Data ]

[ show orbit diagram ]
Orbital Elements at Epoch 2459200.5 (2020-Dec-17.0) TDB
Reference: JPL 26 (heliocentric ecliptic J2000)
 Element Value Uncertainty (1-sigma)   Units 
e .1111399647385763 3.2525e-08  
a 3.090057477626655 1.8075e-08 au
q 2.746628598523054 1.0799e-07 au
i 6.679128511610334 4.1049e-06 deg
node 154.104563787886 3.3007e-05 deg
peri 297.7845006009841 3.9416e-05 deg
M 322.2804682685926 2.1202e-05 deg
tp 2459408.379687488451
(2021-Jul-12.87968749)
0.00011697 TDB
period 1984.030131358427
5.43
1.7409e-05
4.766e-08
d
yr
n .1814488572073828 1.5921e-09 deg/d
Q 3.433486356730255 2.0084e-08 au
  Orbit Determination Parameters
   # obs. used (total)      1037  
   data-arc span      9425 days (25.80 yr)  
   first obs. used      1995-03-28  
   last obs. used      2021-01-15  
   planetary ephem.      DE441  
   SB-pert. ephem.      SB441-N16  
   condition code      0  
   norm. resid. RMS      .50653  
   source      ORB  
   producer      Otto Matic  
   solution date      2021-Apr-13 12:27:25  

Additional Information
 Earth MOID = 1.77109 au 
 Jupiter MOID = 1.7524 au 
 T_jup = 3.205 
[ show covariance matrix ]

Ephemeris | Orbit Diagram | Orbital Elements | Mission Design | Physical Parameters | Discovery Circumstances | Close-Approach Data ]

Physical Parameter Table
Parameter Symbol Value Units Sigma Reference Notes
absolute magnitude H 14.55   n/a E2021B10  
diameter diameter 6.485 km 1.377 urn:nasa:pds:neowise_diameters_albedos::2.0[mainbelt] (http://adsabs.harvard.edu/abs/2011ApJ...741...68M)  
geometric albedo albedo 0.055   0.028 urn:nasa:pds:neowise_diameters_albedos::2.0[mainbelt] (http://adsabs.harvard.edu/abs/2011ApJ...741...68M)  

67115 (2000 AF116)          Discovered 2000-Jan-05 by LINEAR at Socorro
Reference: 20030910/Numbers.arcLast Updated: 2004-04-19

[ show close-approach data ]
Ephemeris | Orbit Diagram | Orbital Elements | Mission Design | Physical Parameters | Discovery Circumstances | Close-Approach Data ]
ABOUT SSD CREDITS/AWARDS PRIVACY/COPYRIGHT GLOSSARY LINKS
FirstGov 2021-Jun-13 03:41 UT
(server date/time)  
NASA Home Page
Site Manager:   Ryan S. Park
Webmaster  Alan B. Chamberlin